Weather History for Sussex, NJ

Change the Weather History Date:

Monday, February 18, 2013

  Actual Average Record
Temperature  
Mean Temperature 24 °F -  
Max Temperature 34 °F 36 °F 64 °F (2011)
Min Temperature 15 °F 15 °F -18 °F (1979)
Degree Days  
Heating Degree Days 40    
Moisture  
Dew Point 5 °F    
Average Humidity 45    
Maximum Humidity 63    
Minimum Humidity 27    
Precipitation  
Precipitation 0.00 in - - ()
Sea Level Pressure  
Sea Level Pressure 30.17 in    
Wind  
Wind Speed 7 mph (WNW)    
Max Wind Speed 14 mph    
Max Gust Speed 23 mph    
Visibility 10 miles    
Events      
Averages and records for this station are not official NWS values.
T = Trace of Precipitation, MM = Missing Value Source: NWS Daily Summary

Daily Weather History Graph

Daily Weather History Graph

Search for Another Location

Airport:

Trip Planner

Search our weather history database for the weather conditions in past years. The results will help you decide how hot, cold, wet, or windy it might be!

Date:

Astronomy

Feb. 18, 2013 Rise Set
Actual Time 6:48 AM EST 5:36 PM EST
Civil Twilight 6:20 AM EST 6:04 PM EST
Nautical Twilight 5:48 AM EST 6:36 PM EST
Astronomical Twilight 5:16 AM EST 7:08 PM EST
Moon 11:19 AM EST (2/18) 1:27 AM EST (2/18)
Length of Visible Light 11h 44m
Length of Day
10h 47m
First Quarter, 58% of the Moon is Illuminated
Feb 18
First Quarter
Feb 25
Full
Mar 4
Last Quarter
Mar 11
New
Mar 19
First Quarter

Hourly Weather History & Observations

Time (EST) Temp. Windchill Dew Point Humidity Pressure Visibility Wind Dir Wind Speed Gust Speed Precip Events Conditions
12:53 AM 16.0 °F 3.6 °F -0.9 °F 47% 30.04 in 10.0 mi West 10.4 mph 21.9 mph N/A   Overcast
1:53 AM 16.0 °F 8.8 °F -0.9 °F 47% 30.05 in 10.0 mi Variable 4.6 mph 20.7 mph N/A   Scattered Clouds
2:53 AM 16.0 °F 1.7 °F -0.0 °F 49% 30.07 in 10.0 mi NW 13.8 mph 23.0 mph N/A   Scattered Clouds
3:53 AM 15.1 °F 6.4 °F -0.0 °F 51% 30.09 in 10.0 mi Variable 5.8 mph 19.6 mph N/A   Partly Cloudy
4:53 AM 15.1 °F 3.3 °F -0.0 °F 51% 30.13 in 10.0 mi WNW 9.2 mph - N/A   Clear
5:53 AM 15.1 °F 4.2 °F 1.0 °F 54% 30.16 in 10.0 mi WNW 8.1 mph 18.4 mph N/A   Clear
7:53 AM 17.1 °F 6.6 °F 1.9 °F 52% 30.22 in 10.0 mi NW 8.1 mph 18.4 mph N/A   Clear
8:53 AM 19.0 °F 5.6 °F 1.9 °F 47% 30.23 in 10.0 mi WNW 13.8 mph 21.9 mph N/A   Clear
9:53 AM 21.9 °F 12.5 °F 3.0 °F 44% 30.24 in 10.0 mi West 8.1 mph 19.6 mph N/A   Clear
10:53 AM 24.1 °F 16.0 °F 3.0 °F 40% 30.25 in 10.0 mi Variable 6.9 mph 16.1 mph N/A   Clear
11:53 AM 27.0 °F 20.5 °F 3.9 °F 37% 30.24 in 10.0 mi Variable 5.8 mph 17.3 mph N/A   Clear
12:53 PM 28.9 °F 19.8 °F 3.9 °F 35% 30.22 in 10.0 mi West 10.4 mph 16.1 mph N/A   Clear
1:53 PM 30.9 °F 24.3 °F 3.9 °F 32% 30.19 in 10.0 mi Variable 6.9 mph - N/A   Clear
2:53 PM 33.1 °F 26.9 °F 3.0 °F 28% 30.19 in 10.0 mi Variable 6.9 mph 16.1 mph N/A   Clear
3:53 PM 34.0 °F 29.8 °F 3.0 °F 27% 30.18 in 10.0 mi West 4.6 mph - N/A   Clear
4:53 PM 33.1 °F 28.7 °F 3.0 °F 28% 30.19 in 10.0 mi Variable 4.6 mph - N/A   Clear
5:53 PM 30.9 °F - 5.0 °F 33% 30.19 in 10.0 mi Calm Calm - N/A   Clear
6:53 PM 26.1 °F - 10.9 °F 53% 30.20 in 10.0 mi Calm Calm - N/A   Clear
7:53 PM 25.0 °F 20.7 °F 14.0 °F 63% 30.19 in 10.0 mi WSW 3.5 mph - N/A   Clear
8:53 PM 25.0 °F - 14.0 °F 63% 30.18 in 10.0 mi Calm Calm - N/A   Clear
9:53 PM 27.0 °F - 10.0 °F 49% 30.18 in 10.0 mi Calm Calm - N/A   Partly Cloudy
10:53 PM 28.0 °F - 10.9 °F 49% 30.18 in 10.0 mi Calm Calm - N/A   Partly Cloudy
11:53 PM 28.0 °F - 12.0 °F 51% 30.16 in 10.0 mi Calm Calm - N/A   Clear